,,Stat6,,Stat2,,Stat8,,Stat9,,Stat10,,Wind1,,Wind1,
time,status,PA1M_AVG,status,PR1M_SUM,status,RH1M_AVG,status,SR1M_AVG,status,TA1M_AVG,status,W1dAve1m,status,W1sAve1m,
2007-12-07, 00:00:00,VALID,917.623,VALID,0.2,VALID,100,VALID,-0.0169808,VALID,19.2501,VALID,161,VALID,0,
2007-12-07, 00:01:00,VALID,917.613,VALID,0.2,VALID,100,VALID,-0.0169808,VALID,19.2304,VALID,161,VALID,0,
2007-12-07, 00:02:01,VALID,917.583,VALID,0.4,VALID,100,VALID,-0.0169808,VALID,19.2466,VALID,161,VALID,0,
2007-12-07, 00:03:01,VALID,917.562,VALID,0.2,VALID,100,VALID,0,VALID,19.2501,VALID,161,VALID,0,
2007-12-07, 00:04:01,VALID,917.553,VALID,0.2,VALID,100,VALID,-0.0169808,VALID,19.2466,VALID,161,VALID,0,
2007-12-07, 00:05:01,VALID,917.533,VALID,0,VALID,100,VALID,0,VALID,19.2501,VALID,161,VALID,0,
2007-12-07, 00:06:00,VALID,917.523,VALID,0.2,VALID,100,VALID,0,VALID,19.2466,VALID,161,VALID,0,
2007-12-07, 00:07:00,VALID,917.496,VALID,0,VALID,100,VALID,-0.0169808,VALID,19.2501,VALID,161,VALID,0,
2007-12-07, 00:08:01,VALID,917.476,VALID,0,VALID,100,VALID,-0.0169808,VALID,19.2464,VALID,161,VALID,0,
2007-12-07, 00:09:01,VALID,917.459,VALID,0,VALID,100,VALID,0,VALID,19.2501,VALID,161,VALID,0,
2007-12-07, 00:10:01,VALID,917.446,VALID,0,VALID,100,VALID,-0.0169808,VALID,19.2364,VALID,161,VALID,0,
2007-12-07, 00:11:01,VALID,917.444,VALID,0,VALID,100,VALID,0,VALID,19.2367,VALID,161,VALID,0,
2007-12-07, 00:12:01,VALID,917.441,VALID,0,VALID,100,VALID,-0.0169808,VALID,19.2404,VALID,161,VALID,0,
2007-12-07, 00:13:01,VALID,917.446,VALID,0,VALID,100,VALID,0,VALID,19.2466,VALID,161,VALID,0,
2007-12-07, 00:14:00,VALID,917.437,VALID,0,VALID,100,VALID,0,VALID,19.2399,VALID,161,VALID,0,
2007-12-07, 00:15:00,VALID,917.413,VALID,0.2,VALID,100,VALID,-0.0339617,VALID,19.2499,VALID,161,VALID,0,
2007-12-07, 00:16:00,VALID,917.424,VALID,0,VALID,100,VALID,0,VALID,19.2564,VALID,161,VALID,0,
2007-12-07, 00:17:00,VALID,917.419,VALID,0,VALID,100,VALID,-0.0169808,VALID,19.2239,VALID,161,VALID,0,
2007-12-07, 00:18:00,VALID,917.407,VALID,0,VALID,100,VALID,0,VALID,19.1912,VALID,161,VALID,0,
2007-12-07, 00:19:00,VALID,917.4,VALID,0,VALID,100,VALID,0.0169808,VALID,19.1915,VALID,161,VALID,0,
2007-12-07, 00:20:00,VALID,917.378,VALID,0,VALID,100,VALID,0,VALID,19.1755,VALID,161,VALID,0,
2007-12-07, 00:21:00,VALID,917.368,VALID,0,VALID,100,VALID,0,VALID,19.1621,VALID,144,VALID,0,
2007-12-07, 00:22:00,VALID,917.359,VALID,0,VALID,100,VALID,0,VALID,19.1428,VALID,133,VALID,0,
2007-12-07, 00:23:00,VALID,917.335,VALID,0,VALID,100,VALID,0,VALID,19.1266,VALID,133,VALID,0,
2007-12-07, 00:24:00,VALID,917.322,VALID,0,VALID,100,VALID,0,VALID,19.1331,VALID,133,VALID,0,
2007-12-07, 00:25:00,VALID,917.295,VALID,0,VALID,100,VALID,-0.0169808,VALID,19.1204,VALID,132,VALID,0,
2007-12-07, 00:26:00,VALID,917.27,VALID,0,VALID,100,VALID,0.0509425,VALID,19.1064,VALID,112,VALID,0.30878,
2007-12-07, 00:27:00,VALID,917.27,VALID,0,VALID,100,VALID,-0.0509425,VALID,19.1308,VALID,113,VALID,0.110102,
2007-12-07, 00:28:00,VALID,917.251,VALID,0.2,VALID,100,VALID,-0.0509425,VALID,19.1213,VALID,111,VALID,0,
2007-12-07, 00:29:00,VALID,917.218,VALID,0,VALID,100,VALID,-0.0849042,VALID,19.1181,VALID,111,VALID,0,
2007-12-07, 00:30:00,VALID,917.194,VALID,0,VALID,100,VALID,-0.0849042,VALID,19.1084,VALID,111,VALID,0.233842,
2007-12-07, 00:31:00,VALID,917.174,VALID,0,VALID,100,VALID,-0.0679233,VALID,19.1148,VALID,111,VALID,0.104759,
2007-12-07, 00:32:00,VALID,917.154,VALID,0,VALID,100,VALID,-0.0679233,VALID,19.1116,VALID,111,VALID,0.212754,
2007-12-07, 00:33:00,VALID,917.15,VALID,0,VALID,100,VALID,-0.0849042,VALID,19.1051,VALID,116,VALID,0.118075,
2007-12-07, 00:34:00,VALID,917.129,VALID,0,VALID,100,VALID,-0.101885,VALID,19.1049,VALID,116,VALID,0.398242,
2007-12-07, 00:35:00,VALID,917.114,VALID,0,VALID,100,VALID,-0.0679233,VALID,19.0921,VALID,121,VALID,0.455382,
2007-12-07, 00:36:00,VALID,917.1,VALID,0,VALID,100,VALID,-0.0339617,VALID,19.0822,VALID,127,VALID,0.633594,
2007-12-07, 00:37:00,VALID,917.089,VALID,0,VALID,100,VALID,-0.101885,VALID,19.0729,VALID,149,VALID,0.463224,
2007-12-07, 00:38:00,VALID,917.07,VALID,0,VALID,100,VALID,-0.101885,VALID,19.0664,VALID,138,VALID,0.46689,
2007-12-07, 00:39:00,VALID,917.062,VALID,0,VALID,100,VALID,-0.101885,VALID,19.0537,VALID,138,VALID,0.117543,
2007-12-07, 00:40:00,VALID,917.03,VALID,0,VALID,100,VALID,-0.0679233,VALID,19.0372,VALID,138,VALID,0.0680043,
2007-12-07, 00:41:00,VALID,917.013,VALID,0,VALID,100,VALID,-0.0849042,VALID,19.034,VALID,138,VALID,0.722834,
2007-12-07, 00:42:00,VALID,916.978,VALID,0,VALID,100,VALID,-0.0679233,VALID,19.0213,VALID,135,VALID,0.816592,
2007-12-07, 00:43:00,VALID,916.954,VALID,0,VALID,100,VALID,-0.0849042,VALID,19.008,VALID,134,VALID,0.763626,
2007-12-07, 00:44:00,VALID,916.924,VALID,0,VALID,100,VALID,-0.0509425,VALID,19.0013,VALID,134,VALID,0.522372,
2007-12-07, 00:45:00,VALID,916.886,VALID,0,VALID,100,VALID,-0.101885,VALID,19.0018,VALID,136,VALID,0.0298828,
2007-12-07, 00:46:00,VALID,916.855,VALID,0,VALID,100,VALID,-0.0339617,VALID,18.9948,VALID,142,VALID,0.298633,
2007-12-07, 00:47:00,VALID,916.831,VALID,0,VALID,100,VALID,-0.101885,VALID,18.9983,VALID,143,VALID,0.134448,
2007-12-07, 00:48:00,VALID,916.824,VALID,0,VALID,100,VALID,-0.0849042,VALID,18.9951,VALID,145,VALID,0.488672,
2007-12-07, 00:49:00,VALID,916.818,VALID,0,VALID,100,VALID,-0.0679233,VALID,18.9888,VALID,139,VALID,0.43657,
2007-12-07, 00:50:00,VALID,916.804,VALID,0,VALID,100,VALID,-0.101885,VALID,18.9781,VALID,150,VALID,0.72202,
2007-12-07, 00:51:00,VALID,916.789,VALID,0,VALID,100,VALID,-0.101885,VALID,18.9726,VALID,152,VALID,0.634909,
2007-12-07, 00:52:00,VALID,916.776,VALID,0,VALID,100,VALID,-0.101885,VALID,18.9689,VALID,157,VALID,0.486607,
2007-12-07, 00:53:00,VALID,916.751,VALID,0,VALID,100,VALID,-0.0339617,VALID,18.9584,VALID,156,VALID,0.568824,
2007-12-07, 00:54:00,VALID,916.748,VALID,0,VALID,100,VALID,-0.0509425,VALID,18.9686,VALID,156,VALID,0.461664,
2007-12-07, 00:55:00,VALID,916.736,VALID,0,VALID,100,VALID,-0.0509425,VALID,18.9684,VALID,164,VALID,0.185865,
2007-12-07, 00:56:00,VALID,916.717,VALID,0,VALID,100,VALID,-0.0849042,VALID,18.9846,VALID,150,VALID,0.960405,
2007-12-07, 00:57:00,VALID,916.7,VALID,0,VALID,100,VALID,-0.0679233,VALID,18.9983,VALID,156,VALID,0.616629,
2007-12-07, 00:58:00,VALID,916.694,VALID,0,VALID,100,VALID,-0.101885,VALID,18.9916,VALID,154,VALID,1.01835,
2007-12-07, 00:59:00,VALID,916.669,VALID,0,VALID,100,VALID,-0.101885,VALID,18.9948,VALID,155,VALID,1.21021,
2007-12-07, 01:00:00,VALID,916.644,VALID,0,VALID,100,VALID,-0.0679233,VALID,18.9951,VALID,155,VALID,1.00915,
2007-12-07, 01:01:00,VALID,916.631,VALID,0,VALID,100,VALID,-0.0849042,VALID,18.9951,VALID,155,VALID,1.04892,
2007-12-07, 01:02:00,VALID,916.591,VALID,0,VALID,100,VALID,-0.0849042,VALID,18.9888,VALID,159,VALID,1.40698,
2007-12-07, 01:03:00,VALID,916.565,VALID,0,VALID,100,VALID,-0.0849042,VALID,18.9823,VALID,160,VALID,1.23651,
2007-12-07, 01:04:00,VALID,916.553,VALID,0,VALID,100,VALID,-0.0679233,VALID,18.9649,VALID,160,VALID,1.25763,
2007-12-07, 01:05:00,VALID,916.531,VALID,0,VALID,100,VALID,-0.0679233,VALID,18.9724,VALID,161,VALID,1.50621,
2007-12-07, 01:06:00,VALID,916.529,VALID,0,VALID,100,VALID,-0.101885,VALID,18.9724,VALID,166,VALID,1.24745,
2007-12-07, 01:07:00,VALID,916.534,VALID,0,VALID,100,VALID,-0.118866,VALID,18.9788,VALID,171,VALID,1.39542,
2007-12-07, 01:08:00,VALID,916.535,VALID,0,VALID,100,VALID,-0.0849042,VALID,18.9818,VALID,169,VALID,0.918899,
2007-12-07, 01:09:00,VALID,916.538,VALID,0,VALID,100,VALID,-0.118866,VALID,18.9791,VALID,159,VALID,0.699751,
2007-12-07, 01:10:00,VALID,916.523,VALID,0,VALID,100,VALID,-0.0849042,VALID,18.9821,VALID,150,VALID,0.687305,
2007-12-07, 01:11:00,VALID,916.504,VALID,0,VALID,100,VALID,-0.0849042,VALID,18.9888,VALID,154,VALID,0.76684,
2007-12-07, 01:12:00,VALID,916.497,VALID,0,VALID,100,VALID,-0.0679233,VALID,18.9918,VALID,163,VALID,0.703303,
2007-12-07, 01:13:00,VALID,916.478,VALID,0,VALID,100,VALID,-0.0849042,VALID,18.9821,VALID,140,VALID,0.909549,
2007-12-07, 01:14:00,VALID,916.477,VALID,0,VALID,100,VALID,-0.0509425,VALID,18.9888,VALID,143,VALID,0.863281,
2007-12-07, 01:15:00,VALID,916.453,VALID,0,VALID,100,VALID,-0.0169808,VALID,18.9749,VALID,130,VALID,0.90968,
2007-12-07, 01:16:00,VALID,916.444,VALID,0,VALID,100,VALID,-0.0509425,VALID,18.9823,VALID,143,VALID,1.15677,
2007-12-07, 01:17:00,VALID,916.437,VALID,0,VALID,100,VALID,-0.0849042,VALID,18.9881,VALID,152,VALID,1.25462,
2007-12-07, 01:18:00,VALID,916.437,VALID,0,VALID,100,VALID,-0.0169808,VALID,18.9814,VALID,139,VALID,1.19327,
2007-12-07, 01:19:00,VALID,916.429,VALID,0,VALID,100,VALID,-0.0339617,VALID,18.9946,VALID,142,VALID,1.55105,
2007-12-07, 01:20:00,VALID,916.421,VALID,0,VALID,100,VALID,-0.0509425,VALID,18.9846,VALID,145,VALID,1.08043,
2007-12-07, 01:21:00,VALID,916.421,VALID,0,VALID,100,VALID,-0.0849042,VALID,19.0013,VALID,143,VALID,1.20494,
2007-12-07, 01:22:00,VALID,916.407,VALID,0,VALID,100,VALID,-0.0509425,VALID,19.0043,VALID,139,VALID,0.692264,
2007-12-07, 01:23:00,VALID,916.415,VALID,0,VALID,100,VALID,-0.0679233,VALID,18.9978,VALID,138,VALID,0.945499,
2007-12-07, 01:24:00,VALID,916.388,VALID,0,VALID,100,VALID,-0.0679233,VALID,19.0013,VALID,137,VALID,1.45017,
2007-12-07, 01:25:00,VALID,916.364,VALID,0,VALID,100,VALID,-0.0849042,VALID,19.0078,VALID,137,VALID,1.3403,
2007-12-07, 01:26:00,VALID,916.353,VALID,0,VALID,100,VALID,-0.0849042,VALID,19.0043,VALID,135,VALID,1.33812,
2007-12-07, 01:27:00,VALID,916.337,VALID,0,VALID,100,VALID,-0.101885,VALID,19.018,VALID,155,VALID,1.30367,
2007-12-07, 01:28:00,VALID,916.32,VALID,0,VALID,100,VALID,-0.0849042,VALID,19.0113,VALID,148,VALID,1.13895,
2007-12-07, 01:29:00,VALID,916.292,VALID,0,VALID,100,VALID,-0.0849042,VALID,19.0113,VALID,149,VALID,1.33079,
2007-12-07, 01:30:00,VALID,916.266,VALID,0,VALID,100,VALID,-0.101885,VALID,19.0148,VALID,173,VALID,1.37147,
2007-12-07, 01:31:00,VALID,916.262,VALID,0,VALID,100,VALID,-0.0849042,VALID,19.0016,VALID,158,VALID,1.46715,
2007-12-07, 01:32:00,VALID,916.247,VALID,0,VALID,100,VALID,-0.0509425,VALID,19.0043,VALID,161,VALID,1.3165,
2007-12-07, 01:33:00,VALID,916.243,VALID,0,VALID,100,VALID,-0.0679233,VALID,19.0108,VALID,163,VALID,1.0726,
2007-12-07, 01:34:00,VALID,916.23,VALID,0,VALID,100,VALID,-0.0849042,VALID,19.0178,VALID,153,VALID,1.18155,
2007-12-07, 01:35:00,VALID,916.224,VALID,0,VALID,100,VALID,-0.101885,VALID,19.0213,VALID,162,VALID,1.45004,
2007-12-07, 01:36:00,VALID,916.235,VALID,0,VALID,100,VALID,-0.101885,VALID,19.0113,VALID,158,VALID,0.952257,
2007-12-07, 01:37:00,VALID,916.237,VALID,0,VALID,100,VALID,-0.0679233,VALID,19.0048,VALID,138,VALID,1.11864,
2007-12-07, 01:38:00,VALID,916.227,VALID,0,VALID,100,VALID,-0.0849042,VALID,18.9814,VALID,148,VALID,1.34687,
2007-12-07, 01:39:00,VALID,916.217,VALID,0,VALID,100,VALID,-0.101885,VALID,18.9881,VALID,140,VALID,1.47842,
2007-12-07, 01:40:00,VALID,916.221,VALID,0,VALID,100,VALID,-0.101885,VALID,18.9788,VALID,133,VALID,1.62064,
2007-12-07, 01:41:00,VALID,916.213,VALID,0,VALID,100,VALID,-0.101885,VALID,18.9621,VALID,132,VALID,1.61592,
2007-12-07, 01:42:00,VALID,916.191,VALID,0,VALID,100,VALID,0,VALID,18.9841,VALID,133,VALID,1.90075,
2007-12-07, 01:43:00,VALID,916.156,VALID,0,VALID,100,VALID,-0.0169808,VALID,19.0001,VALID,135,VALID,1.32757,
2007-12-07, 01:44:00,VALID,916.144,VALID,0,VALID,100,VALID,0.0169808,VALID,19.0128,VALID,138,VALID,1.59836,
2007-12-07, 01:45:00,VALID,916.122,VALID,0,VALID,100,VALID,0,VALID,19.0191,VALID,127,VALID,0.911014,
2007-12-07, 01:46:00,VALID,916.102,VALID,0,VALID,100,VALID,0,VALID,19.0458,VALID,142,VALID,1.45131,
2007-12-07, 01:47:00,VALID,916.081,VALID,0,VALID,100,VALID,-0.0169808,VALID,19.0425,VALID,137,VALID,1.35501,
2007-12-07, 01:48:00,VALID,916.068,VALID,0,VALID,100,VALID,0.0169808,VALID,19.0458,VALID,138,VALID,1.74982,
2007-12-07, 01:49:00,VALID,916.045,VALID,0,VALID,100,VALID,0,VALID,19.0455,VALID,140,VALID,1.27805,
2007-12-07, 01:50:00,VALID,916.024,VALID,0,VALID,100,VALID,0,VALID,19.0388,VALID,129,VALID,1.27604,
2007-12-07, 01:51:00,VALID,916.024,VALID,0,VALID,100,VALID,0,VALID,19.0587,VALID,136,VALID,1.10347,
2007-12-07, 01:52:00,VALID,916.009,VALID,0,VALID,100,VALID,0.0339617,VALID,19.048,VALID,141,VALID,1.2709,
2007-12-07, 01:53:00,VALID,915.994,VALID,0,VALID,100,VALID,0,VALID,19.0652,VALID,133,VALID,1.94826,
2007-12-07, 01:54:00,VALID,915.976,VALID,0,VALID,100,VALID,0,VALID,19.0583,VALID,126,VALID,1.69996,
2007-12-07, 01:55:00,VALID,915.976,VALID,0,VALID,100,VALID,0.0169808,VALID,19.0645,VALID,123,VALID,1.35866,
2007-12-07, 01:56:00,VALID,915.974,VALID,0,VALID,100,VALID,0,VALID,19.0707,VALID,121,VALID,1.5221,
2007-12-07, 01:57:00,VALID,915.963,VALID,0,VALID,100,VALID,-0.0679233,VALID,19.0789,VALID,124,VALID,1.47212,
2007-12-07, 01:58:00,VALID,915.964,VALID,0,VALID,100,VALID,-0.101885,VALID,19.0889,VALID,137,VALID,1.30432,
2007-12-07, 01:59:00,VALID,915.957,VALID,0,VALID,100,VALID,-0.0849042,VALID,19.0859,VALID,140,VALID,1.488,
2007-12-07, 02:00:00,VALID,915.945,VALID,0,VALID,100,VALID,-0.101885,VALID,19.0757,VALID,132,VALID,1.52273,
2007-12-07, 02:01:00,VALID,915.927,VALID,0,VALID,100,VALID,-0.101885,VALID,19.0784,VALID,157,VALID,1.40207,
2007-12-07, 02:02:00,VALID,915.926,VALID,0,VALID,100,VALID,-0.0849042,VALID,19.0819,VALID,156,VALID,1.87463,
2007-12-07, 02:03:00,VALID,915.925,VALID,0,VALID,100,VALID,-0.0679233,VALID,19.0889,VALID,158,VALID,1.1849,
2007-12-07, 02:04:00,VALID,915.912,VALID,0,VALID,100,VALID,-0.101885,VALID,19.0924,VALID,146,VALID,0.71657,
2007-12-07, 02:05:00,VALID,915.924,VALID,0,VALID,100,VALID,-0.101885,VALID,19.0829,VALID,145,VALID,0.347479,
2007-12-07, 02:06:00,VALID,915.919,VALID,0,VALID,100,VALID,-0.101885,VALID,19.0829,VALID,153,VALID,0.625372,
2007-12-07, 02:07:00,VALID,915.915,VALID,0,VALID,100,VALID,-0.101885,VALID,19.0697,VALID,157,VALID,1.20512,
2007-12-07, 02:08:00,VALID,915.912,VALID,0,VALID,100,VALID,-0.101885,VALID,19.0732,VALID,153,VALID,0.937686,
2007-12-07, 02:09:00,VALID,915.903,VALID,0,VALID,100,VALID,-0.101885,VALID,19.0694,VALID,150,VALID,0.369368,
2007-12-07, 02:10:00,VALID,915.899,VALID,0,VALID,100,VALID,-0.0849042,VALID,19.0595,VALID,159,VALID,1.1726,
2007-12-07, 02:11:00,VALID,915.892,VALID,0,VALID,100,VALID,-0.0679233,VALID,19.0527,VALID,154,VALID,0.966654,
2007-12-07, 02:12:00,VALID,915.869,VALID,0,VALID,100,VALID,-0.0339617,VALID,19.0565,VALID,159,VALID,1.08381,
2007-12-07, 02:13:00,VALID,915.871,VALID,0,VALID,100,VALID,-0.0679233,VALID,19.0502,VALID,145,VALID,0.939135,
2007-12-07, 02:14:00,VALID,915.857,VALID,0,VALID,100,VALID,-0.0849042,VALID,19.0372,VALID,159,VALID,1.03423,
2007-12-07, 02:15:00,VALID,915.84,VALID,0,VALID,100,VALID,-0.135847,VALID,19.0375,VALID,159,VALID,1.48121,
2007-12-07, 02:16:00,VALID,915.817,VALID,0,VALID,100,VALID,-0.0849042,VALID,19.0407,VALID,148,VALID,1.14276,
2007-12-07, 02:17:00,VALID,915.8,VALID,0,VALID,100,VALID,-0.101885,VALID,19.0375,VALID,126,VALID,1.4742,
2007-12-07, 02:18:00,VALID,915.794,VALID,0,VALID,100,VALID,-0.0849042,VALID,19.0505,VALID,162,VALID,0.771341,
2007-12-07, 02:19:00,VALID,915.791,VALID,0,VALID,100,VALID,-0.0849042,VALID,19.0535,VALID,126,VALID,1.42094,
2007-12-07, 02:20:00,VALID,915.79,VALID,0,VALID,100,VALID,-0.101885,VALID,19.0497,VALID,115,VALID,1.48474,
2007-12-07, 02:21:00,VALID,915.778,VALID,0,VALID,100,VALID,-0.0679233,VALID,19.0634,VALID,119,VALID,1.47475,
2007-12-07, 02:22:00,VALID,915.78,VALID,0,VALID,100,VALID,-0.0849042,VALID,19.0562,VALID,124,VALID,1.21449,
2007-12-07, 02:23:00,VALID,915.778,VALID,0,VALID,100,VALID,-0.0849042,VALID,19.0565,VALID,120,VALID,1.34427,
2007-12-07, 02:24:00,VALID,915.774,VALID,0,VALID,100,VALID,-0.0679233,VALID,19.0664,VALID,124,VALID,2.05793,
2007-12-07, 02:25:00,VALID,915.774,VALID,0,VALID,100,VALID,-0.101885,VALID,19.0792,VALID,119,VALID,1.56996,
2007-12-07, 02:26:00,VALID,915.764,VALID,0,VALID,100,VALID,-0.101885,VALID,19.0984,VALID,122,VALID,2.28683,
2007-12-07, 02:27:00,VALID,915.759,VALID,0,VALID,100,VALID,-0.0169808,VALID,19.1401,VALID,128,VALID,2.17115,
2007-12-07, 02:28:00,VALID,915.738,VALID,0,VALID,100,VALID,-0.0169808,VALID,19.1528,VALID,119,VALID,1.59654,
2007-12-07, 02:29:00,VALID,915.736,VALID,0,VALID,100,VALID,0.0169808,VALID,19.1496,VALID,115,VALID,1.83381,
2007-12-07, 02:30:00,VALID,915.723,VALID,0,VALID,100,VALID,0,VALID,19.1366,VALID,115,VALID,1.39773,
2007-12-07, 02:31:00,VALID,915.71,VALID,0,VALID,100,VALID,0,VALID,19.1171,VALID,131,VALID,1.03262,
2007-12-07, 02:32:00,VALID,915.695,VALID,0,VALID,100,VALID,0,VALID,19.0977,VALID,120,VALID,1.45484,
2007-12-07, 02:33:00,VALID,915.69,VALID,0,VALID,100,VALID,0,VALID,19.075,VALID,133,VALID,1.44972,
2007-12-07, 02:34:00,VALID,915.68,VALID,0,VALID,100,VALID,0,VALID,19.062,VALID,114,VALID,1.23073,
2007-12-07, 02:35:00,VALID,915.673,VALID,0,VALID,100,VALID,-0.0169808,VALID,19.0455,VALID,113,VALID,1.66297,
2007-12-07, 02:36:00,VALID,915.665,VALID,0,VALID,100,VALID,0,VALID,19.049,VALID,101,VALID,1.55214,
2007-12-07, 02:37:00,VALID,915.676,VALID,0,VALID,100,VALID,0,VALID,19.0258,VALID,94,VALID,1.123,
2007-12-07, 02:38:00,VALID,915.661,VALID,0,VALID,100,VALID,0.0339617,VALID,19.0034,VALID,106,VALID,1.08632,
2007-12-07, 02:39:00,VALID,915.66,VALID,0,VALID,100,VALID,0.0169808,VALID,18.9931,VALID,112,VALID,1.41168,
2007-12-07, 02:40:00,VALID,915.656,VALID,0,VALID,100,VALID,0,VALID,18.9867,VALID,122,VALID,0.903088,
2007-12-07, 02:41:00,VALID,915.661,VALID,0,VALID,100,VALID,0.0169808,VALID,18.9931,VALID,125,VALID,0.75465,
2007-12-07, 02:42:00,VALID,915.66,VALID,0,VALID,100,VALID,0,VALID,19.0101,VALID,116,VALID,1.4702,
2007-12-07, 02:43:00,VALID,915.65,VALID,0,VALID,100,VALID,0,VALID,19.0128,VALID,135,VALID,1.30972,
2007-12-07, 02:44:00,VALID,915.641,VALID,0,VALID,100,VALID,0,VALID,19.0261,VALID,139,VALID,1.41797,
2007-12-07, 02:45:00,VALID,915.641,VALID,0,VALID,100,VALID,0,VALID,19.0291,VALID,142,VALID,1.24466,
2007-12-07, 02:46:00,VALID,915.65,VALID,0,VALID,100,VALID,0,VALID,19.0425,VALID,137,VALID,1.0484,
2007-12-07, 02:47:00,VALID,915.64,VALID,0,VALID,100,VALID,-0.0169808,VALID,19.0363,VALID,134,VALID,1.42738,
2007-12-07, 02:48:00,VALID,915.639,VALID,0,VALID,100,VALID,0.0169808,VALID,19.0455,VALID,131,VALID,1.29066,
2007-12-07, 02:49:00,VALID,915.614,VALID,0,VALID,100,VALID,0,VALID,19.0555,VALID,130,VALID,1.01029,
2007-12-07, 02:50:00,VALID,915.612,VALID,0,VALID,100,VALID,0,VALID,19.0328,VALID,123,VALID,1.07903,
2007-12-07, 02:51:00,VALID,915.607,VALID,0,VALID,100,VALID,0,VALID,19.0393,VALID,144,VALID,1.41254,
2007-12-07, 02:52:00,VALID,915.591,VALID,0,VALID,100,VALID,-0.0169808,VALID,19.039,VALID,141,VALID,1.25093,
2007-12-07, 02:53:00,VALID,915.602,VALID,0,VALID,100,VALID,-0.0339617,VALID,19.0428,VALID,136,VALID,1.60429,
2007-12-07, 02:54:00,VALID,915.575,VALID,0,VALID,100,VALID,-0.0169808,VALID,19.0458,VALID,143,VALID,1.45122,
2007-12-07, 02:55:00,VALID,915.559,VALID,0,VALID,100,VALID,-0.0169808,VALID,19.0555,VALID,132,VALID,1.54847,
2007-12-07, 02:56:00,VALID,915.548,VALID,0,VALID,100,VALID,-0.0339617,VALID,19.0652,VALID,134,VALID,1.51953,
2007-12-07, 02:57:00,VALID,915.537,VALID,0,VALID,100,VALID,0.0169808,VALID,19.062,VALID,131,VALID,1.59091,
2007-12-07, 02:58:00,VALID,915.534,VALID,0,VALID,100,VALID,0.0169808,VALID,19.0523,VALID,121,VALID,1.21633,
2007-12-07, 02:59:00,VALID,915.518,VALID,0,VALID,100,VALID,0,VALID,19.0553,VALID,132,VALID,1.34648,
2007-12-07, 03:00:00,VALID,915.5,VALID,0,VALID,100,VALID,0,VALID,19.0485,VALID,136,VALID,1.621,
2007-12-07, 03:01:00,VALID,915.487,VALID,0,VALID,100,VALID,0,VALID,19.0523,VALID,131,VALID,1.52943,
2007-12-07, 03:02:00,VALID,915.478,VALID,0,VALID,100,VALID,-0.0169808,VALID,19.0455,VALID,124,VALID,1.59003,
2007-12-07, 03:03:00,VALID,915.476,VALID,0,VALID,100,VALID,-0.0169808,VALID,19.0488,VALID,125,VALID,1.27153,
2007-12-07, 03:04:00,VALID,915.466,VALID,0,VALID,100,VALID,0,VALID,19.0485,VALID,135,VALID,1.60085,
2007-12-07, 03:05:00,VALID,915.445,VALID,0,VALID,100,VALID,-0.0169808,VALID,19.0587,VALID,123,VALID,1.54161,
2007-12-07, 03:06:00,VALID,915.434,VALID,0,VALID,100,VALID,0,VALID,19.0587,VALID,134,VALID,1.25409,
2007-12-07, 03:07:00,VALID,915.428,VALID,0,VALID,100,VALID,0,VALID,19.0585,VALID,137,VALID,1.17871,
2007-12-07, 03:08:00,VALID,915.433,VALID,0,VALID,100,VALID,0,VALID,19.0682,VALID,125,VALID,1.42578,
2007-12-07, 03:09:00,VALID,915.445,VALID,0,VALID,100,VALID,0,VALID,19.0712,VALID,136,VALID,1.51414,
2007-12-07, 03:10:00,VALID,915.449,VALID,0,VALID,100,VALID,0.0169808,VALID,19.0842,VALID,136,VALID,0.823933,
2007-12-07, 03:11:00,VALID,915.451,VALID,0,VALID,100,VALID,0,VALID,19.078,VALID,145,VALID,1.49848,
2007-12-07, 03:12:00,VALID,915.463,VALID,0,VALID,100,VALID,0,VALID,19.0707,VALID,133,VALID,1.23865,
2007-12-07, 03:13:00,VALID,915.453,VALID,0,VALID,100,VALID,0,VALID,19.0814,VALID,140,VALID,1.05451,
2007-12-07, 03:14:00,VALID,915.452,VALID,0,VALID,100,VALID,0,VALID,19.0747,VALID,155,VALID,0.882068,
2007-12-07, 03:15:00,VALID,915.457,VALID,0,VALID,100,VALID,-0.0169808,VALID,19.065,VALID,147,VALID,0.604102,
2007-12-07, 03:16:00,VALID,915.447,VALID,0,VALID,100,VALID,-0.0169808,VALID,19.0685,VALID,146,VALID,1.01563,
2007-12-07, 03:17:00,VALID,915.448,VALID,0,VALID,100,VALID,0,VALID,19.0617,VALID,139,VALID,0.96804,
2007-12-07, 03:18:00,VALID,915.427,VALID,0,VALID,100,VALID,-0.0169808,VALID,19.0617,VALID,153,VALID,1.44103,
2007-12-07, 03:19:00,VALID,915.412,VALID,0,VALID,100,VALID,0,VALID,19.075,VALID,166,VALID,0.835007,
2007-12-07, 03:20:00,VALID,915.401,VALID,0,VALID,100,VALID,-0.0169808,VALID,19.0782,VALID,137,VALID,0.886719,
2007-12-07, 03:21:00,VALID,915.389,VALID,0,VALID,100,VALID,0,VALID,19.0745,VALID,147,VALID,1.34121,
2007-12-07, 03:22:00,VALID,915.375,VALID,0,VALID,100,VALID,0.0169808,VALID,19.0677,VALID,140,VALID,1.26417,
2007-12-07, 03:23:00,VALID,915.37,VALID,0,VALID,100,VALID,-0.0169808,VALID,19.0742,VALID,150,VALID,0.909108,
2007-12-07, 03:24:00,VALID,915.356,VALID,0,VALID,100,VALID,0,VALID,19.0775,VALID,144,VALID,1.3252,
2007-12-07, 03:25:00,VALID,915.354,VALID,0,VALID,100,VALID,-0.0339617,VALID,19.0909,VALID,140,VALID,1.11142,
2007-12-07, 03:26:00,VALID,915.361,VALID,0,VALID,100,VALID,-0.0169808,VALID,19.0979,VALID,140,VALID,1.12056,
2007-12-07, 03:27:00,VALID,915.362,VALID,0,VALID,100,VALID,0,VALID,19.1007,VALID,150,VALID,0.930753,
2007-12-07, 03:28:00,VALID,915.352,VALID,0,VALID,100,VALID,0.0169808,VALID,19.0972,VALID,139,VALID,1.15923,
2007-12-07, 03:29:00,VALID,915.329,VALID,0,VALID,100,VALID,0,VALID,19.1039,VALID,139,VALID,1.50515,
2007-12-07, 03:30:00,VALID,915.323,VALID,0,VALID,100,VALID,-0.0339617,VALID,19.1037,VALID,145,VALID,1.33918,
2007-12-07, 03:31:00,VALID,915.312,VALID,0,VALID,100,VALID,-0.0169808,VALID,19.1234,VALID,135,VALID,1.47148,
2007-12-07, 03:32:00,VALID,915.298,VALID,0,VALID,100,VALID,-0.0339617,VALID,19.1229,VALID,144,VALID,1.37064,
2007-12-07, 03:33:00,VALID,915.278,VALID,0,VALID,100,VALID,-0.0339617,VALID,19.1426,VALID,152,VALID,0.830602,
2007-12-07, 03:34:00,VALID,915.253,VALID,0,VALID,100,VALID,0,VALID,19.1431,VALID,143,VALID,0.964236,
2007-12-07, 03:35:00,VALID,915.243,VALID,0,VALID,100,VALID,-0.0339617,VALID,19.1363,VALID,154,VALID,1.12686,
2007-12-07, 03:36:00,VALID,915.228,VALID,0,VALID,100,VALID,-0.0169808,VALID,19.1329,VALID,147,VALID,1.02871,
2007-12-07, 03:37:00,VALID,915.21,VALID,0,VALID,100,VALID,-0.0169808,VALID,19.1296,VALID,139,VALID,1.53427,
2007-12-07, 03:38:00,VALID,915.2,VALID,0,VALID,100,VALID,0.0169808,VALID,19.1356,VALID,144,VALID,0.96984,
2007-12-07, 03:39:00,VALID,915.195,VALID,0,VALID,100,VALID,-0.0169808,VALID,19.1458,VALID,141,VALID,0.86101,
2007-12-07, 03:40:00,VALID,915.184,VALID,0,VALID,100,VALID,0,VALID,19.1426,VALID,152,VALID,0.883523,
2007-12-07, 03:41:00,VALID,915.181,VALID,0,VALID,100,VALID,0,VALID,19.1356,VALID,132,VALID,1.2411,
2007-12-07, 03:42:00,VALID,915.193,VALID,0,VALID,100,VALID,0,VALID,19.1458,VALID,139,VALID,1.03544,